| time (UTC) | temp F | wind direction | speed MPH | gust MPH | rain 1hr in | rain 24hr in | rain mn in | humidity % | barometer mb |
| 20260903192528 | 87 | 152 | 4.0 | 5.0 | 0.00 | 0.00 | 0.00 | 59 | 1041.4 |
| 20260903192028 | 87 | 162 | 3.0 | 7.0 | 0.00 | 0.00 | 0.00 | 60 | 1041.6 |
| 20260903191525 | 86 | 161 | 3.0 | 5.0 | 0.00 | 0.00 | 0.00 | 60 | 1041.6 |
| 20260903191019 | 87 | 152 | 3.0 | 3.0 | 0.00 | 0.00 | 0.00 | 60 | 1041.7 |
| 20260903190519 | 89 | 174 | 3.0 | 5.0 | 0.00 | 0.00 | 0.00 | 57 | 1041.6 |
| 20260903190018 | 89 | 154 | 2.0 | 3.0 | 0.00 | 0.00 | 0.00 | 58 | 1041.7 |
| 20260903185514 | 87 | 147 | 2.0 | 7.0 | 0.00 | 0.00 | 0.00 | 62 | 1041.7 |
| 20260903185009 | 88 | 147 | 2.0 | 3.0 | 0.00 | 0.00 | 0.00 | 59 | 1041.6 |
| 20260903184506 | 88 | 165 | 3.0 | 3.0 | 0.00 | 0.00 | 0.00 | 59 | 1041.5 |
| 20260903184006 | 88 | 146 | 3.0 | 5.0 | 0.00 | 0.00 | 0.00 | 60 | 1041.6 |
| 20260903183459 | 88 | 153 | 2.0 | 3.0 | 0.00 | 0.00 | 0.00 | 60 | 1041.9 |
| 20260903183000 | 88 | 159 | 2.0 | 3.0 | 0.00 | 0.00 | 0.00 | 63 | 1041.9 |
| 20260903182458 | 88 | 156 | 2.0 | 2.0 | 0.00 | 0.00 | 0.00 | 64 | 1041.8 |
| 20260903181955 | 87 | 164 | 1.0 | 3.0 | 0.00 | 0.00 | 0.00 | 64 | 1042.0 |
| 20260903181453 | 86 | 163 | 2.0 | 2.0 | 0.00 | 0.00 | 0.00 | 66 | 1041.9 |
| 20260903180948 | 86 | 144 | 2.0 | 3.0 | 0.00 | 0.00 | 0.00 | 67 | 1041.8 |
| 20260903180443 | 84 | 154 | 1.0 | 2.0 | 0.00 | 0.00 | 0.00 | 68 | 1042.0 |
| 20260903175942 | 84 | 150 | 2.0 | 3.0 | 0.00 | 0.00 | 0.00 | 67 | 1042.0 |
| 20260903175437 | 83 | 155 | 1.0 | 2.0 | 0.00 | 0.00 | 0.00 | 69 | 1042.3 |
| 20260903174936 | 83 | 148 | 1.0 | 2.0 | 0.00 | 0.00 | 0.00 | 69 | 1042.4 |
| 20260903174431 | 83 | 143 | 2.0 | 2.0 | 0.00 | 0.00 | 0.00 | 68 | 1042.1 |
| 20260903173931 | 84 | 155 | 2.0 | 3.0 | 0.00 | 0.00 | 0.00 | 68 | 1042.5 |
| 20260903173426 | 83 | 176 | 2.0 | 2.0 | 0.00 | 0.00 | 0.00 | 67 | 1042.5 |
| 20260903172921 | 84 | 153 | 1.0 | 2.0 | 0.00 | 0.00 | 0.00 | 68 | 1042.6 |
| 20260903172417 | 85 | 158 | 2.0 | 2.0 | 0.00 | 0.00 | 0.00 | 65 | 1042.6 |
| 20260903171912 | 84 | 162 | 2.0 | 2.0 | 0.00 | 0.00 | 0.00 | 68 | 1042.7 |
| 20260903171407 | 83 | 168 | 2.0 | 3.0 | 0.00 | 0.00 | 0.00 | 68 | 1042.6 |
| 20260903170907 | 83 | 157 | 1.0 | 2.0 | 0.00 | 0.00 | 0.00 | 69 | 1042.8 |
| 20260903170402 | 82 | 156 | 1.0 | 1.0 | 0.00 | 0.00 | 0.00 | 71 | 1042.6 |
| 20260903165900 | 82 | 148 | 1.0 | 2.0 | 0.00 | 0.00 | 0.00 | 69 | 1042.7 |
| 20260903165355 | 81 | 155 | 0.0 | 1.0 | 0.00 | 0.00 | 0.00 | 73 | 1042.8 |
| 20260903164849 | 81 | 153 | 1.0 | 3.0 | 0.00 | 0.00 | 0.00 | 74 | 1042.9 |
| 20260903164345 | 81 | 156 | 2.0 | 2.0 | 0.00 | 0.00 | 0.00 | 73 | 1043.1 |
| 20260903163844 | 81 | 162 | 1.0 | 2.0 | 0.00 | 0.00 | 0.00 | 73 | 1043.2 |
| 20260903163341 | 81 | 155 | 1.0 | 2.0 | 0.00 | 0.00 | 0.00 | 72 | 1043.0 |
| 20260903162836 | 82 | 154 | 2.0 | 2.0 | 0.00 | 0.00 | 0.00 | 71 | 1042.8 |
| 20260903162333 | 82 | 167 | 0.0 | 1.0 | 0.00 | 0.00 | 0.00 | 72 | 1042.8 |
| 20260903161828 | 82 | 161 | 1.0 | 2.0 | 0.00 | 0.00 | 0.00 | 71 | 1042.9 |
| 20260903161324 | 82 | 166 | 1.0 | 2.0 | 0.00 | 0.00 | 0.00 | 70 | 1043.0 |
| 20260903160819 | 82 | 165 | 1.0 | 2.0 | 0.00 | 0.00 | 0.00 | 71 | 1042.9 |
| 20260903160318 | 83 | 158 | 1.0 | 1.0 | 0.00 | 0.00 | 0.00 | 69 | 1042.5 |
| 20260903155817 | 82 | 137 | 1.0 | 1.0 | 0.00 | 0.00 | 0.00 | 70 | 1042.7 |
| 20260903155312 | 82 | 163 | 1.0 | 2.0 | 0.00 | 0.00 | 0.00 | 70 | 1042.7 |
| 20260903154807 | 84 | 148 | 1.0 | 2.0 | 0.00 | 0.00 | 0.00 | 69 | 1042.7 |
| 20260903154304 | 84 | 142 | 1.0 | 3.0 | 0.00 | 0.00 | 0.00 | 68 | 1042.7 |
| 20260903153759 | 84 | 140 | 1.0 | 2.0 | 0.00 | 0.00 | 0.00 | 69 | 1042.8 |
| 20260903153255 | 83 | 143 | 1.0 | 2.0 | 0.00 | 0.00 | 0.00 | 69 | 1042.7 |
| 20260903152751 | 83 | 160 | 2.0 | 3.0 | 0.00 | 0.00 | 0.00 | 69 | 1042.6 |
| 20260903152246 | 83 | 153 | 1.0 | 1.0 | 0.00 | 0.00 | 0.00 | 71 | 1042.8 |
| 20260903151746 | 82 | 92 | 2.0 | 2.0 | 0.00 | 0.00 | 0.00 | 71 | 1042.6 |
| 20260903151242 | 81 | 173 | 2.0 | 2.0 | 0.00 | 0.00 | 0.00 | 73 | 1042.7 |
| 20260903150736 | 79 | 157 | 1.0 | 1.0 | 0.00 | 0.00 | 0.00 | 75 | 1042.8 |
| 20260903150236 | 79 | 150 | 1.0 | 2.0 | 0.00 | 0.00 | 0.00 | 78 | 1042.5 |
| 20260903145731 | 80 | 160 | 1.0 | 1.0 | 0.00 | 0.00 | 0.00 | 76 | 1042.6 |
| 20260903145227 | 79 | 160 | 2.0 | 2.0 | 0.00 | 0.00 | 0.00 | 78 | 1043.1 |
| 20260903144725 | 77 | 158 | 1.0 | 2.0 | 0.00 | 0.00 | 0.00 | 80 | 1042.8 |
| 20260903144221 | 76 | 159 | 2.0 | 3.0 | 0.00 | 0.00 | 0.00 | 82 | 1042.6 |
| 20260903143717 | 76 | 167 | 2.0 | 2.0 | 0.00 | 0.00 | 0.00 | 82 | 1043.0 |
| 20260903143213 | 75 | 163 | 4.0 | 5.0 | 0.00 | 0.00 | 0.00 | 82 | 1043.0 |
| 20260903142709 | 75 | 166 | 1.0 | 2.0 | 0.00 | 0.00 | 0.00 | 83 | 1042.9 |
| 20260903142205 | 75 | 164 | 1.0 | 3.0 | 0.00 | 0.00 | 0.00 | 83 | 1042.9 |
| 20260903141700 | 75 | 160 | 2.0 | 3.0 | 0.00 | 0.00 | 0.00 | 84 | 1042.6 |
| 20260903141154 | 75 | 150 | 1.0 | 2.0 | 0.00 | 0.00 | 0.00 | 84 | 1042.7 |
| 20260903140651 | 75 | 148 | 2.0 | 2.0 | 0.00 | 0.00 | 0.00 | 84 | 1042.8 |
| 20260903140146 | 74 | 166 | 2.0 | 3.0 | 0.00 | 0.00 | 0.00 | 84 | 1043.0 |
| 20260903135642 | 74 | 149 | 1.0 | 2.0 | 0.00 | 0.00 | 0.00 | 84 | 1043.0 |
| 20260903135136 | 74 | 156 | 2.0 | 2.0 | 0.00 | 0.00 | 0.00 | 85 | 1043.0 |
| 20260903134635 | 73 | 154 | 0.0 | 2.0 | 0.00 | 0.00 | 0.00 | 86 | 1043.3 |
| 20260903134131 | 73 | 157 | 2.0 | 3.0 | 0.00 | 0.00 | 0.00 | 86 | 1043.0 |
| 20260903133629 | 72 | 168 | 2.0 | 3.0 | 0.00 | 0.00 | 0.00 | 86 | 1043.1 |
| 20260903133125 | 72 | 151 | 2.0 | 3.0 | 0.00 | 0.00 | 0.00 | 87 | 1043.3 |
| 20260903132624 | 72 | 157 | 3.0 | 3.0 | 0.00 | 0.00 | 0.00 | 87 | 1043.3 |
| 20260903132119 | 71 | 150 | 2.0 | 2.0 | 0.00 | 0.00 | 0.00 | 87 | 1043.3 |
| 20260903131614 | 71 | 154 | 1.0 | 2.0 | 0.00 | 0.00 | 0.00 | 88 | 1043.2 |
| 20260903131113 | 70 | 152 | 1.0 | 2.0 | 0.00 | 0.00 | 0.00 | 88 | 1043.2 |
| 20260903130609 | 69 | 154 | 1.0 | 2.0 | 0.00 | 0.00 | 0.00 | 90 | 1042.9 |
| 20260903125601 | 67 | 143 | 0.0 | 0.0 | 0.00 | 0.00 | 0.00 | 94 | 1043.6 |
| 20260903125056 | 66 | 167 | 1.0 | 1.0 | 0.00 | 0.00 | 0.00 | 93 | 1043.7 |
| 20260903124551 | 66 | 115 | 0.0 | 0.0 | 0.00 | 0.00 | 0.00 | 94 | 1043.4 |
| 20260903124050 | 66 | 115 | 0.0 | 1.0 | 0.00 | 0.00 | 0.00 | 94 | 1043.3 |
| 20260903123550 | 66 | 116 | 1.0 | 1.0 | 0.00 | 0.00 | 0.00 | 94 | 1043.3 |
| 20260903123048 | 66 | 116 | 0.0 | 0.0 | 0.00 | 0.00 | 0.00 | 95 | 1043.1 |
| 20260903122543 | 66 | 116 | 0.0 | 0.0 | 0.00 | 0.00 | 0.00 | 94 | 1043.2 |
| 20260903122042 | 66 | 116 | 0.0 | 1.0 | 0.00 | 0.00 | 0.00 | 94 | 1043.2 |
| 20260903121537 | 66 | 116 | 0.0 | 1.0 | 0.00 | 0.00 | 0.00 | 93 | 1043.2 |
| 20260903121033 | 66 | 117 | 0.0 | 0.0 | 0.00 | 0.00 | 0.00 | 94 | 1043.2 |
| 20260903120532 | 66 | 117 | 0.0 | 0.0 | 0.00 | 0.00 | 0.00 | 94 | 1043.3 |
| 20260903120026 | 65 | 115 | 1.0 | 1.0 | 0.00 | 0.00 | 0.00 | 94 | 1043.4 |
| 20260903115519 | 65 | 119 | 1.0 | 1.0 | 0.00 | 0.00 | 0.00 | 95 | 1043.4 |
| 20260903115014 | 64 | 119 | 1.0 | 1.0 | 0.00 | 0.00 | 0.00 | 96 | 1043.6 |
| 20260903114509 | 64 | 141 | 0.0 | 1.0 | 0.00 | 0.00 | 0.00 | 96 | 1043.4 |
| 20260903114005 | 64 | 168 | 0.0 | 1.0 | 0.00 | 0.00 | 0.00 | 96 | 1043.3 |
| 20260903113501 | 64 | 111 | 1.0 | 2.0 | 0.00 | 0.00 | 0.00 | 97 | 1043.5 |
| 20260903112955 | 64 | 134 | 0.0 | 1.0 | 0.00 | 0.00 | 0.00 | 97 | 1043.3 |
| 20260903112451 | 64 | 124 | 0.0 | 1.0 | 0.00 | 0.00 | 0.00 | 97 | 1043.1 |
| 20260903111951 | 64 | 124 | 0.0 | 1.0 | 0.00 | 0.00 | 0.00 | 97 | 1043.1 |
| 20260903111445 | 64 | 130 | 0.0 | 1.0 | 0.00 | 0.00 | 0.00 | 97 | 1042.9 |
| 20260903110942 | 64 | 144 | 0.0 | 1.0 | 0.00 | 0.00 | 0.00 | 97 | 1043.1 |
| 20260903110437 | 64 | 165 | 1.0 | 1.0 | 0.00 | 0.00 | 0.00 | 97 | 1043.1 |
| 20260903105931 | 64 | 156 | 0.0 | 1.0 | 0.00 | 0.00 | 0.00 | 96 | 1043.0 |
| 20260903105427 | 64 | 146 | 0.0 | 0.0 | 0.00 | 0.00 | 0.00 | 96 | 1043.0 |
| 20260903104926 | 64 | 149 | 0.0 | 0.0 | 0.00 | 0.00 | 0.00 | 96 | 1042.7 |
| 20260903104426 | 64 | 123 | 1.0 | 1.0 | 0.00 | 0.00 | 0.00 | 96 | 1042.8 |
| 20260903103923 | 65 | 124 | 0.0 | 0.0 | 0.00 | 0.00 | 0.00 | 95 | 1042.8 |
| 20260903103419 | 65 | 124 | 0.0 | 0.0 | 0.00 | 0.00 | 0.00 | 95 | 1042.6 |
| 20260903102914 | 65 | 124 | 0.0 | 0.0 | 0.00 | 0.00 | 0.00 | 94 | 1042.8 |
| 20260903102409 | 65 | 124 | 0.0 | 0.0 | 0.00 | 0.00 | 0.00 | 94 | 1043.0 |
| 20260903101908 | 65 | 124 | 0.0 | 0.0 | 0.00 | 0.00 | 0.00 | 94 | 1042.9 |
| 20260903101403 | 65 | 124 | 0.0 | 0.0 | 0.00 | 0.00 | 0.00 | 94 | 1042.8 |
| 20260903100859 | 65 | 124 | 0.0 | 0.0 | 0.00 | 0.00 | 0.00 | 94 | 1043.0 |
| 20260903100354 | 65 | 124 | 0.0 | 1.0 | 0.00 | 0.00 | 0.00 | 94 | 1043.0 |
| 20260903095850 | 65 | 126 | 0.0 | 1.0 | 0.00 | 0.00 | 0.00 | 93 | 1042.9 |
| 20260903095344 | 66 | 145 | 0.0 | 1.0 | 0.00 | 0.00 | 0.00 | 91 | 1042.9 |
| 20260903094840 | 67 | 122 | 0.0 | 2.0 | 0.00 | 0.00 | 0.00 | 89 | 1042.7 |
| 20260903094334 | 67 | 140 | 0.0 | 2.0 | 0.00 | 0.00 | 0.00 | 86 | 1043.0 |
| 20260903093830 | 67 | 145 | 0.0 | 1.0 | 0.00 | 0.00 | 0.00 | 87 | 1042.7 |
| 20260903093325 | 66 | 101 | 0.0 | 1.0 | 0.00 | 0.00 | 0.00 | 90 | 1042.3 |
| 20260903092820 | 66 | 118 | 1.0 | 2.0 | 0.00 | 0.00 | 0.00 | 92 | 1042.6 |
| 20260903092314 | 66 | 149 | 0.0 | 0.0 | 0.00 | 0.00 | 0.00 | 92 | 1042.5 |
| 20260903091814 | 66 | 140 | 0.0 | 1.0 | 0.00 | 0.00 | 0.00 | 91 | 1042.7 |
| 20260903091307 | 66 | 117 | 1.0 | 1.0 | 0.00 | 0.00 | 0.00 | 91 | 1042.9 |
| 20260903090803 | 67 | 122 | 0.0 | 1.0 | 0.00 | 0.00 | 0.00 | 89 | 1043.0 |
| 20260903090303 | 67 | 126 | 0.0 | 3.0 | 0.00 | 0.00 | 0.00 | 89 | 1043.0 |
| 20260903085801 | 67 | 134 | 0.0 | 1.0 | 0.00 | 0.00 | 0.00 | 90 | 1043.0 |
| 20260903085256 | 67 | 117 | 1.0 | 1.0 | 0.00 | 0.00 | 0.00 | 90 | 1043.1 |
| 20260903084754 | 67 | 120 | 0.0 | 1.0 | 0.00 | 0.00 | 0.00 | 90 | 1042.9 |
| 20260903084249 | 67 | 141 | 0.0 | 1.0 | 0.00 | 0.00 | 0.00 | 91 | 1043.1 |
| 20260903083744 | 66 | 126 | 0.0 | 1.0 | 0.00 | 0.00 | 0.00 | 91 | 1042.9 |
| 20260903083244 | 66 | 136 | 0.0 | 1.0 | 0.00 | 0.00 | 0.00 | 92 | 1042.7 |
| 20260903082743 | 66 | 128 | 0.0 | 1.0 | 0.00 | 0.00 | 0.00 | 93 | 1042.8 |
| 20260903082234 | 66 | 128 | 0.0 | 1.0 | 0.00 | 0.00 | 0.00 | 93 | 1043.0 |
| 20260903081734 | 66 | 126 | 0.0 | 1.0 | 0.00 | 0.00 | 0.00 | 94 | 1043.0 |
| 20260903081230 | 66 | 123 | 1.0 | 1.0 | 0.00 | 0.00 | 0.00 | 94 | 1043.0 |
| 20260903080726 | 65 | 113 | 0.0 | 0.0 | 0.00 | 0.00 | 0.00 | 95 | 1043.0 |
| 20260903080223 | 66 | 135 | 0.0 | 0.0 | 0.00 | 0.00 | 0.00 | 95 | 1043.1 |
| 20260903075722 | 66 | 135 | 0.0 | 0.0 | 0.00 | 0.00 | 0.00 | 95 | 1043.0 |
| 20260903075218 | 66 | 135 | 0.0 | 0.0 | 0.00 | 0.00 | 0.00 | 95 | 1043.3 |
| 20260903074716 | 66 | 135 | 0.0 | 0.0 | 0.00 | 0.00 | 0.00 | 95 | 1043.2 |
| 20260903074212 | 66 | 135 | 0.0 | 0.0 | 0.00 | 0.00 | 0.00 | 95 | 1043.3 |
| 20260903073707 | 65 | 137 | 0.0 | 0.0 | 0.00 | 0.00 | 0.00 | 95 | 1043.1 |
| 20260903073202 | 65 | 136 | 0.0 | 0.0 | 0.00 | 0.00 | 0.00 | 95 | 1043.0 |
| 20260903072658 | 66 | 136 | 0.0 | 1.0 | 0.00 | 0.00 | 0.00 | 95 | 1043.1 |
| 20260903072155 | 66 | 146 | 0.0 | 0.0 | 0.00 | 0.00 | 0.00 | 94 | 1043.0 |
| 20260903071650 | 66 | 129 | 0.0 | 0.0 | 0.00 | 0.00 | 0.00 | 94 | 1043.2 |
| 20260903071146 | 66 | 127 | 0.0 | 1.0 | 0.00 | 0.00 | 0.00 | 94 | 1043.0 |
| 20260903070646 | 66 | 125 | 1.0 | 1.0 | 0.00 | 0.00 | 0.00 | 93 | 1043.1 |
| 20260903070141 | 67 | 149 | 0.0 | 0.0 | 0.00 | 0.00 | 0.00 | 93 | 1043.3 |
| 20260903065641 | 66 | 126 | 1.0 | 2.0 | 0.00 | 0.00 | 0.00 | 94 | 1043.3 |
| 20260903065135 | 66 | 137 | 0.0 | 1.0 | 0.00 | 0.00 | 0.00 | 95 | 1043.3 |
| 20260903064629 | 66 | 151 | 0.0 | 1.0 | 0.00 | 0.00 | 0.00 | 95 | 1043.3 |
| 20260903064125 | 66 | 118 | 0.0 | 1.0 | 0.00 | 0.00 | 0.00 | 95 | 1043.4 |
| 20260903063620 | 66 | 124 | 1.0 | 2.0 | 0.00 | 0.00 | 0.00 | 95 | 1043.4 |
| 20260903063115 | 66 | 129 | 0.0 | 1.0 | 0.00 | 0.00 | 0.00 | 96 | 1043.5 |
| 20260903062611 | 66 | 128 | 0.0 | 0.0 | 0.00 | 0.00 | 0.00 | 96 | 1043.5 |
| 20260903062106 | 66 | 109 | 1.0 | 1.0 | 0.00 | 0.00 | 0.00 | 97 | 1043.6 |
| 20260903061606 | 66 | 116 | 0.0 | 1.0 | 0.00 | 0.00 | 0.00 | 97 | 1043.6 |
| 20260903061101 | 66 | 116 | 0.0 | 1.0 | 0.00 | 0.00 | 0.00 | 97 | 1043.9 |
| 20260903060601 | 66 | 116 | 0.0 | 0.0 | 0.00 | 0.00 | 0.00 | 97 | 1043.9 |
| 20260903060056 | 66 | 116 | 0.0 | 0.0 | 0.00 | 0.00 | 0.00 | 97 | 1043.7 |
| 20260903055553 | 66 | 117 | 0.0 | 0.0 | 0.00 | 0.00 | 0.00 | 97 | 1043.8 |
| 20260903055052 | 66 | 116 | 0.0 | 0.0 | 0.00 | 0.00 | 0.00 | 97 | 1043.8 |
| 20260903054547 | 66 | 116 | 0.0 | 0.0 | 0.00 | 0.00 | 0.00 | 97 | 1043.8 |
| 20260903054043 | 66 | 116 | 0.0 | 0.0 | 0.00 | 0.00 | 0.00 | 97 | 1043.8 |
| 20260903053538 | 66 | 116 | 0.0 | 0.0 | 0.00 | 0.00 | 0.00 | 97 | 1043.7 |
| 20260903053035 | 66 | 116 | 0.0 | 0.0 | 0.00 | 0.00 | 0.00 | 97 | 1043.8 |
| 20260903052530 | 66 | 116 | 0.0 | 1.0 | 0.00 | 0.00 | 0.00 | 97 | 1044.0 |
| 20260903052026 | 66 | 117 | 0.0 | 0.0 | 0.00 | 0.00 | 0.00 | 97 | 1043.8 |
| 20260903051525 | 66 | 116 | 0.0 | 1.0 | 0.00 | 0.00 | 0.00 | 97 | 1043.9 |
| 20260903051021 | 66 | 116 | 0.0 | 1.0 | 0.00 | 0.00 | 0.00 | 97 | 1043.9 |
| 20260903050520 | 66 | 117 | 0.0 | 1.0 | 0.00 | 0.00 | 0.00 | 96 | 1043.9 |
| 20260903050016 | 66 | 117 | 0.0 | 0.0 | 0.00 | 0.00 | 0.00 | 96 | 1043.9 |
| 20260903045510 | 66 | 117 | 0.0 | 0.0 | 0.00 | 0.00 | 0.00 | 96 | 1043.9 |
| 20260903045007 | 66 | 117 | 0.0 | 0.0 | 0.00 | 0.00 | 0.00 | 96 | 1043.9 |
| 20260903044502 | 66 | 117 | 0.0 | 0.0 | 0.00 | 0.00 | 0.00 | 96 | 1043.9 |
| 20260903043958 | 66 | 117 | 0.0 | 1.0 | 0.00 | 0.00 | 0.00 | 96 | 1043.7 |
| 20260903043453 | 66 | 117 | 0.0 | 0.0 | 0.00 | 0.00 | 0.00 | 95 | 1043.6 |
| 20260903042952 | 67 | 117 | 0.0 | 1.0 | 0.00 | 0.00 | 0.00 | 95 | 1043.7 |
| 20260903042447 | 67 | 117 | 0.0 | 0.0 | 0.00 | 0.00 | 0.00 | 95 | 1043.7 |
| 20260903041943 | 67 | 117 | 0.0 | 1.0 | 0.00 | 0.00 | 0.00 | 95 | 1043.7 |
| 20260903041439 | 67 | 117 | 0.0 | 0.0 | 0.00 | 0.00 | 0.00 | 94 | 1043.7 |
| 20260903040935 | 67 | 117 | 0.0 | 0.0 | 0.00 | 0.00 | 0.00 | 94 | 1043.8 |
| 20260903040433 | 67 | 117 | 0.0 | 1.0 | 0.00 | 0.00 | 0.00 | 94 | 1043.6 |
| 20260903035930 | 67 | 117 | 0.0 | 0.0 | 0.00 | 0.00 | 0.00 | 94 | 1043.8 |
| 20260903035425 | 68 | 117 | 0.0 | 0.0 | 0.00 | 0.00 | 0.00 | 94 | 1043.7 |
| 20260903034920 | 68 | 117 | 0.0 | 0.0 | 0.00 | 0.00 | 0.00 | 93 | 1043.9 |
| 20260903034415 | 68 | 117 | 0.0 | 0.0 | 0.00 | 0.00 | 0.00 | 93 | 1043.8 |
| 20260903033910 | 68 | 117 | 0.0 | 0.0 | 0.00 | 0.00 | 0.00 | 92 | 1043.8 |
| 20260903033405 | 68 | 117 | 0.0 | 0.0 | 0.00 | 0.00 | 0.00 | 92 | 1044.0 |
| 20260903032906 | 69 | 117 | 0.0 | 0.0 | 0.00 | 0.00 | 0.00 | 91 | 1044.0 |
| 20260903032401 | 69 | 117 | 0.0 | 1.0 | 0.00 | 0.00 | 0.00 | 91 | 1044.0 |
| 20260903031856 | 70 | 117 | 0.0 | 1.0 | 0.00 | 0.00 | 0.00 | 89 | 1044.1 |
| 20260903031355 | 70 | 117 | 0.0 | 0.0 | 0.00 | 0.00 | 0.00 | 87 | 1043.9 |
| 20260903030851 | 70 | 117 | 0.0 | 0.0 | 0.00 | 0.00 | 0.00 | 87 | 1044.0 |
| 20260903030347 | 70 | 117 | 0.0 | 1.0 | 0.00 | 0.00 | 0.00 | 88 | 1044.0 |
| 20260903025843 | 71 | 117 | 0.0 | 0.0 | 0.00 | 0.00 | 0.00 | 87 | 1044.0 |
| 20260903025338 | 71 | 117 | 0.0 | 0.0 | 0.00 | 0.00 | 0.00 | 86 | 1043.9 |
| 20260903024837 | 71 | 116 | 1.0 | 2.0 | 0.00 | 0.00 | 0.00 | 86 | 1043.9 |
| 20260903024332 | 71 | 123 | 0.0 | 1.0 | 0.00 | 0.00 | 0.00 | 87 | 1044.1 |
| 20260903023828 | 71 | 124 | 0.0 | 1.0 | 0.00 | 0.00 | 0.00 | 87 | 1044.2 |
| 20260903023323 | 71 | 124 | 0.0 | 0.0 | 0.00 | 0.00 | 0.00 | 87 | 1043.9 |
| 20260903022818 | 71 | 124 | 0.0 | 1.0 | 0.00 | 0.00 | 0.00 | 85 | 1043.9 |
| 20260903022317 | 71 | 125 | 0.0 | 0.0 | 0.00 | 0.00 | 0.00 | 84 | 1043.9 |
| 20260903021811 | 72 | 113 | 0.0 | 0.0 | 0.00 | 0.00 | 0.00 | 82 | 1043.9 |
| 20260903021307 | 73 | 141 | 0.0 | 0.0 | 0.00 | 0.00 | 0.00 | 77 | 1043.8 |
| 20260903020806 | 72 | 141 | 0.0 | 0.0 | 0.00 | 0.00 | 0.00 | 79 | 1043.7 |
| 20260903020301 | 72 | 140 | 0.0 | 1.0 | 0.00 | 0.00 | 0.00 | 81 | 1043.9 |
| 20260903015756 | 73 | 141 | 0.0 | 0.0 | 0.00 | 0.00 | 0.00 | 78 | 1043.7 |
| 20260903015252 | 73 | 141 | 0.0 | 0.0 | 0.00 | 0.00 | 0.00 | 77 | 1043.6 |
| 20260903014747 | 73 | 141 | 0.0 | 0.0 | 0.00 | 0.00 | 0.00 | 77 | 1043.4 |
| 20260903014247 | 73 | 141 | 0.0 | 1.0 | 0.00 | 0.00 | 0.00 | 77 | 1043.3 |
| 20260903013742 | 73 | 141 | 0.0 | 0.0 | 0.00 | 0.00 | 0.00 | 76 | 1043.3 |
| 20260903013241 | 73 | 142 | 0.0 | 0.0 | 0.00 | 0.00 | 0.00 | 77 | 1043.2 |
| 20260903012739 | 73 | 142 | 0.0 | 0.0 | 0.00 | 0.00 | 0.00 | 76 | 1043.4 |
| 20260903012234 | 73 | 142 | 0.0 | 0.0 | 0.00 | 0.00 | 0.00 | 76 | 1043.6 |
| 20260903011734 | 73 | 142 | 0.0 | 0.0 | 0.00 | 0.00 | 0.00 | 74 | 1043.4 |
| 20260903011227 | 74 | 142 | 0.0 | 0.0 | 0.00 | 0.00 | 0.00 | 74 | 1043.4 |
| 20260903010723 | 74 | 142 | 0.0 | 0.0 | 0.00 | 0.00 | 0.00 | 74 | 1043.4 |
| 20260903010223 | 75 | 142 | 0.0 | 0.0 | 0.00 | 0.00 | 0.00 | 77 | 1043.4 |
| 20260903005722 | 75 | 142 | 0.0 | 0.0 | 0.00 | 0.00 | 0.00 | 73 | 1043.2 |
| 20260903005217 | 75 | 142 | 0.0 | 0.0 | 0.00 | 0.00 | 0.00 | 69 | 1043.3 |
| 20260903004713 | 76 | 142 | 0.0 | 0.0 | 0.00 | 0.00 | 0.00 | 70 | 1043.1 |
| 20260903004208 | 77 | 142 | 0.0 | 0.0 | 0.00 | 0.00 | 0.00 | 69 | 1043.1 |
| 20260903003704 | 77 | 142 | 0.0 | 0.0 | 0.00 | 0.00 | 0.00 | 68 | 1043.1 |
| 20260903003159 | 78 | 142 | 0.0 | 0.0 | 0.00 | 0.00 | 0.00 | 69 | 1043.0 |
| 20260903002654 | 78 | 142 | 0.0 | 0.0 | 0.00 | 0.00 | 0.00 | 68 | 1042.9 |
| 20260903002148 | 78 | 142 | 0.0 | 0.0 | 0.00 | 0.00 | 0.00 | 67 | 1043.2 |
| 20260903001643 | 78 | 142 | 0.0 | 0.0 | 0.00 | 0.00 | 0.00 | 68 | 1043.1 |
| 20260903001137 | 79 | 142 | 0.0 | 0.0 | 0.00 | 0.00 | 0.00 | 65 | 1043.1 |
| 20260903000633 | 79 | 142 | 0.0 | 0.0 | 0.00 | 0.00 | 0.00 | 65 | 1043.2 |
| 20260903000132 | 79 | 142 | 0.0 | 0.0 | 0.00 | 0.00 | 0.00 | 65 | 1043.0 |
| 20260902235631 | 80 | 142 | 0.0 | 0.0 | 0.00 | 0.00 | 0.00 | 64 | 1043.2 |
| 20260902235126 | 80 | 142 | 0.0 | 0.0 | 0.00 | 0.00 | 0.00 | 61 | 1043.3 |
| 20260902234620 | 81 | 142 | 0.0 | 0.0 | 0.00 | 0.00 | 0.00 | 60 | 1043.5 |
| 20260902234119 | 82 | 142 | 0.0 | 0.0 | 0.00 | 0.00 | 0.00 | 59 | 1043.0 |
| 20260902233614 | 82 | 142 | 0.0 | 0.0 | 0.00 | 0.00 | 0.00 | 56 | 1043.3 |
| 20260902233114 | 83 | 142 | 0.0 | 0.0 | 0.00 | 0.00 | 0.00 | 56 | 1043.2 |
| 20260902232608 | 85 | 142 | 0.0 | 1.0 | 0.00 | 0.00 | 0.00 | 55 | 1043.2 |
| 20260902232102 | 86 | 142 | 0.0 | 1.0 | 0.00 | 0.00 | 0.00 | 53 | 1043.3 |
| 20260902231601 | 86 | 142 | 0.0 | 0.0 | 0.00 | 0.00 | 0.00 | 52 | 1043.1 |
| 20260902231056 | 86 | 142 | 0.0 | 0.0 | 0.00 | 0.00 | 0.00 | 52 | 1042.9 |
| 20260902230551 | 85 | 142 | 0.0 | 0.0 | 0.00 | 0.00 | 0.00 | 53 | 1043.2 |
| 20260902230050 | 85 | 141 | 0.0 | 0.0 | 0.00 | 0.00 | 0.00 | 54 | 1043.3 |
| 20260902225545 | 85 | 140 | 0.0 | 0.0 | 0.00 | 0.00 | 0.00 | 53 | 1043.2 |
| 20260902225045 | 86 | 122 | 1.0 | 1.0 | 0.00 | 0.00 | 0.00 | 54 | 1043.2 |
| 20260902224543 | 87 | 158 | 0.0 | 1.0 | 0.00 | 0.00 | 0.00 | 52 | 1043.3 |
| 20260902224040 | 86 | 158 | 0.0 | 1.0 | 0.00 | 0.00 | 0.00 | 52 | 1043.2 |
| 20260902223536 | 86 | 161 | 0.0 | 1.0 | 0.00 | 0.00 | 0.00 | 49 | 1043.2 |
| 20260902223035 | 88 | 162 | 0.0 | 1.0 | 0.00 | 0.00 | 0.00 | 50 | 1043.3 |
| 20260902222533 | 88 | 152 | 0.0 | 1.0 | 0.00 | 0.00 | 0.00 | 48 | 1043.2 |
| 20260902222032 | 87 | 164 | 1.0 | 2.0 | 0.00 | 0.00 | 0.00 | 48 | 1043.3 |
| 20260902221527 | 87 | 165 | 0.0 | 1.0 | 0.00 | 0.00 | 0.00 | 51 | 1043.4 |
| 20260902221022 | 87 | 161 | 0.0 | 1.0 | 0.00 | 0.00 | 0.00 | 49 | 1043.4 |
| 20260902220517 | 87 | 160 | 0.0 | 1.0 | 0.00 | 0.00 | 0.00 | 52 | 1043.4 |
| 20260902220012 | 88 | 138 | 0.0 | 1.0 | 0.00 | 0.00 | 0.00 | 51 | 1043.3 |
| 20260902215508 | 89 | 158 | 0.0 | 2.0 | 0.00 | 0.00 | 0.00 | 46 | 1043.4 |
| 20260902215003 | 89 | 167 | 1.0 | 1.0 | 0.00 | 0.00 | 0.00 | 47 | 1043.2 |
| 20260902214503 | 89 | 167 | 0.0 | 1.0 | 0.00 | 0.00 | 0.00 | 47 | 1043.1 |
| 20260902214001 | 88 | 167 | 0.0 | 1.0 | 0.00 | 0.00 | 0.00 | 51 | 1043.4 |
| 20260902213458 | 88 | 154 | 0.0 | 2.0 | 0.00 | 0.00 | 0.00 | 49 | 1043.4 |
| 20260902212956 | 88 | 149 | 1.0 | 2.0 | 0.00 | 0.00 | 0.00 | 52 | 1043.2 |
| 20260902212453 | 89 | 170 | 1.0 | 1.0 | 0.00 | 0.00 | 0.00 | 49 | 1043.3 |
| 20260902211949 | 88 | 169 | 1.0 | 1.0 | 0.00 | 0.00 | 0.00 | 49 | 1043.3 |
| 20260902211444 | 89 | 169 | 0.0 | 1.0 | 0.00 | 0.00 | 0.00 | 48 | 1043.3 |
| 20260902210939 | 88 | 159 | 0.0 | 1.0 | 0.00 | 0.00 | 0.00 | 49 | 1043.3 |
| 20260902210434 | 88 | 164 | 1.0 | 2.0 | 0.00 | 0.00 | 0.00 | 49 | 1043.7 |
| 20260902205932 | 87 | 146 | 0.0 | 2.0 | 0.00 | 0.00 | 0.00 | 51 | 1043.6 |
| 20260902205428 | 88 | 156 | 1.0 | 1.0 | 0.00 | 0.00 | 0.00 | 47 | 1043.4 |
| 20260902204924 | 87 | 170 | 0.0 | 1.0 | 0.00 | 0.00 | 0.00 | 49 | 1043.5 |
| 20260902204423 | 87 | 115 | 2.0 | 2.0 | 0.00 | 0.00 | 0.00 | 48 | 1043.5 |
| 20260902203919 | 87 | 173 | 1.0 | 2.0 | 0.00 | 0.00 | 0.00 | 47 | 1043.4 |
| 20260902203414 | 87 | 97 | 1.0 | 2.0 | 0.00 | 0.00 | 0.00 | 49 | 1043.5 |
| 20260902202913 | 88 | 169 | 1.0 | 1.0 | 0.00 | 0.00 | 0.00 | 46 | 1043.4 |
| 20260902202409 | 89 | 168 | 0.0 | 2.0 | 0.00 | 0.00 | 0.00 | 46 | 1043.8 |
| 20260902201906 | 88 | 168 | 0.0 | 1.0 | 0.00 | 0.00 | 0.00 | 47 | 1043.7 |
| 20260902201405 | 88 | 152 | 0.0 | 1.0 | 0.00 | 0.00 | 0.00 | 49 | 1043.7 |
| 20260902200900 | 86 | 161 | 0.0 | 1.0 | 0.00 | 0.00 | 0.00 | 49 | 1043.7 |
| 20260902200355 | 86 | 147 | 1.0 | 3.0 | 0.00 | 0.00 | 0.00 | 54 | 1043.8 |
| 20260902195850 | 86 | 127 | 0.0 | 3.0 | 0.00 | 0.00 | 0.00 | 48 | 1043.7 |
| 20260902195349 | 85 | 161 | 0.0 | 2.0 | 0.00 | 0.00 | 0.00 | 50 | 1043.7 |
| 20260902194845 | 86 | 108 | 1.0 | 3.0 | 0.00 | 0.00 | 0.00 | 52 | 1044.0 |
| 20260902194339 | 87 | 156 | 1.0 | 1.0 | 0.00 | 0.00 | 0.00 | 50 | 1043.8 |
| 20260902193835 | 86 | 166 | 1.0 | 2.0 | 0.00 | 0.00 | 0.00 | 51 | 1044.0 |
| 20260902193331 | 86 | 160 | 2.0 | 2.0 | 0.00 | 0.00 | 0.00 | 50 | 1044.0 |
| 20260902192829 | 87 | 145 | 0.0 | 1.0 | 0.00 | 0.00 | 0.00 | 51 | 1044.1 |